Regional Weather Roundup
Issued by NWS Grand Forks, ND

Home | Current Version | Previous Version | Graphics & Text | Print | Product List | Glossary On
Versions: 1 2 3 4 5 6 7 8 9 10 11 12 13 14 15 16 17 18 19 20 21 22 23 24 25 26 27 28 29 30 31 32 33 34 35 36 37 38 39 40 41 42 43 44 45 46 47 48 49 50
000
ASUS43 KFGF 230710
RWRFGF
NATIONAL WEATHER SERVICE EASTERN NORTH DAKOTA/GRAND FORKS ND
200 AM CDT SAT MAY 23 2015

 **SATELLITE DATA USED TO AUGMENT SKY COVER AT AUTOMATED STATIONS**
 *****  WEATHER ACROSS EASTERN NORTH DAKOTA  *****

CITY           SKY/WX    TMP DP  RH WIND       PRES   REMARKS
GRAND FORKS    CLEAR     54  42  64 SE6       30.12S
GRAND FRKS AFB CLEAR     49  42  76 SW5       30.13R
GRAND FRKS NWS   N/A     50 N/A N/A S1          N/A
DEVILS LAKE    CLEAR     54  43  66 CALM      30.12S
FARGO          CLEAR     55  38  52 S10       30.14R
WAHPETON ARPT  SUNNY     54  41  62 SW8       30.17S
$$

 ***** WEATHER ACROSS CENTRAL AND WESTERN NORTH DAKOTA  *****

CITY           SKY/WX    TMP DP  RH WIND       PRES   REMARKS
BISMARCK       CLEAR     50  41  71 E3        30.13R
MINOT          MOCLDY    60  40  47 SW6       30.10R
JAMESTOWN      MOCLDY    54  41  61 S7        30.12S
MINOT AFB      MOCLDY    55  42  63 S5        30.09R
GARRISON         N/A     53  40  61 CALM      30.12R
WILLISTON      PTCLDY    57  38  48 S3        30.09R
DICKINSON      PTCLDY    43  35  73 S8        30.09R
HETTINGER      PTCLDY    44  38  79 SE7       30.10S
$$

 *****  OTHER AIRPORT OBSERVATIONS IN OUR AREA  *****

CITY           SKY/WX    TMP DP  RH WIND       PRES   REMARKS
WALHALLA       FAIR      57  36  44 SW7       30.11S
GRAFTON AIRPOR FAIR      54  48  82 SW3       30.13R
VALLEY CITY AR FAIR      50  36  57 S3        30.13F
CANDO          FAIR      46  39  76 S5        30.12S
CAVALIER APRT  FAIR      55  43  62 SW5       30.11S
GWINNER        NOT AVBL
SHEYENNE NWR     N/A     54  47  76 SW7       29.95S
ROLLA          FAIR      50  34  53 SW5       30.14R
 ***** THE ABOVE OBSERVATIONS ARE NON NWS ARE NOT QUALITY
       CONTROLLED AND MAY MIS-REPORT RAIN FOR SNOW...
$$

  *****  WEATHER ACROSS NORTHERN MINNESOTA  *****

CITY           SKY/WX    TMP DP  RH WIND       PRES   REMARKS
FLAG ISLAND    NOT AVBL
WARROAD        PTCLDY    61  43  51 SW6       30.12R
ROSEAU         CLEAR     59  43  55 SW9       30.11S
HALLOCK        CLEAR     50  45  81 S6        30.11S
THF RVR FALLS  CLEAR     55  39  54 S8        30.15S
BAUDETTE       CLEAR     58  38  47 W8        30.11S
WASKISH        CLEAR     57  43  58 CALM      30.14S
CROOKSTON      CLEAR     52  39  62 SE8       30.15S
STEPHEN NDAWN    N/A     52  43  71 SW5         N/A
GREENBUSH NDAW   N/A     54  45  71 S3          N/A
$$
  *****  WEATHER ACROSS CENTRAL AND WEST MINNESOTA  *****

CITY           SKY/WX    TMP DP  RH WIND       PRES   REMARKS
FOSSTON        CLEAR     48  37  66 CALM      30.17S
BEMIDJI        CLEAR     51  42  71 SW5       30.17S
PARK RAPIDS    CLEAR     51  40  65 CALM      30.18R
ELBOW LAKE     FAIR      54  42  65 SW9       30.18R
WADENA         CLEAR     46  37  71 CALM      30.18R
DETROIT LAKES  CLEAR     52  43  71 CALM      30.18S
MOORHEAD       CLEAR     55  39  54 S9        30.16R
FERGUS FALLS   CLEAR     55  39  54 S8        30.18R
MORRIS MN      CLEAR     54  45  71 W7        30.19R
STAPLES        CLEAR     46  39  76 CALM      30.18S
$$
  *****  WEATHER ELSEWHERE ACROSS MINNESOTA  *****

CITY           SKY/WX    TMP DP  RH WIND       PRES   REMARKS
DULUTH         CLEAR     55  36  48 W9        30.18S
INTRNTL FALLS  PTCLDY    49  40  71 SW3       30.12R
ELY            CLEAR     54  36  50 CALM      30.15R
CLOQUET        CLEAR     55  34  44 SW7       30.19S
WHEATON        PTCLDY    54  43  66 SW5       30.19S
BRAINERD       CLEAR     45  41  86 CALM      30.19S
HIBBING        CLEAR     42  36  79 CALM      30.17R
ALEXANDRIA     PTCLDY    55  39  54 S7        30.20R
SAINT CLOUD    FAIR      46  42  86 CALM      30.19S
MINNEAPOLIS    PTCLDY    59  38  45 SE5       30.20S
$$

  *****  WEATHER ACROSS SOUTH DAKOTA  *****

CITY           SKY/WX    TMP DP  RH WIND       PRES   REMARKS
SIOUX FALLS    CLOUDY    57  44  62 S9        30.21R
BROOKINGS      CLOUDY    54  45  71 CALM      30.22R
WATERTOWN      PTCLDY    50  42  74 CALM      30.20S
HURON          MOCLDY    48  43  82 SE3       30.19S
SISSETON         N/A     57  43  59 W17G23    30.16R
ABERDEEN       PTCLDY    47  42  83 S5        30.19R
MITCHELL       CLOUDY    55  47  74 VRB3      30.19F
PIERRE         CLOUDY    49  42  77 SE8       30.13S
MOBRIDGE       PTCLDY    50  45  83 S7        30.12S
RAPID CITY     CLOUDY    48  44  86 S12       30.06F
$$

  *****  SOME WEATHER IN NEARBY STATES *****

CITY           SKY/WX    TMP DP  RH WIND       PRES   REMARKS
GLASGOW MT     CLOUDY    58  42  55 E10       30.01R
GREAT FALLS MT CLOUDY    55  42  61 E18G28    29.98S
CHEYENNE WY    CLOUDY    43  41  93 S8        30.05S
SCOTTSBLUFF NE CLOUDY    46  45  96 SE12      30.07R
OMAHA NE       CLOUDY    60  49  66 SE10      30.19S
DES MOINES IA  MOCLDY    60  48  64 CALM      30.22S
DAVENPORT IA   CLOUDY    59  44  57 E6        30.24S
CHICAGO IL     MOCLDY    50  32  50 SE5       30.28F
EAU CLAIRE WI  CLEAR     45  39  79 CALM      30.22S
LA CROSSE WI   PTCLDY    52  44  74 SE6       30.23R
$$

  *****  SOME NATIONAL WEATHER *****

CITY           SKY/WX    TMP DP  RH WIND       PRES   REMARKS
LA GUARDIA NY  CLEAR     55  28  35 NW20      30.23R
RALEIGH NC     PTCLDY    50  48  93 CALM      30.30R
ATLANTA GA     CLEAR     65  52  62 CALM      30.26S
NEW ORLEANS LA PTCLDY    73  67  81 SE3       30.15F
OKLAHOMA CITY  CLOUDY    58  56  93 SE8       30.13S
ALBUQUERQUE NM MOCLDY    61  25  25 SW5       29.98R
SALT LAKE CITY CLOUDY    55  43  63 S7        29.90R
LOS ANGELES CA MOCLDY    59  52  77 W8        30.07F
BOISE ID       MOCLDY    60  50  69 W9        29.86S
SEATTLE WA     CLOUDY    54  49  83 SW8       30.09R
$$

*** WEATHER ACROSS MANITOBA...SASKATCHEWAN AND ONTARIO ***
                ***ONTARIO***

CITY           SKY/WX    TMP DP  RH WIND       PRES   REMARKS
GERALDTON      MOCLDY    45  23  42 S5        30.06S
THUNDER BAY    CLEAR     36  32  87 VRB2      30.11S
SIOUX LOOKOUT  PTCLDY    61  39  44 W9        30.02S
TORONTO        CLEAR     37  27  65 SW7       30.34R
BIG TROUT LK   CLEAR     37  34  87 W3        29.86S
PICKLE LAKE    NOT AVBL
DRYDEN         PTCLDY    59  41  51 W10       30.05R
KENORA         PTCLDY    61  39  44 SW10      30.07S
$$
                *** MANITOBA***

CITY           SKY/WX    TMP DP  RH WIND       PRES   REMARKS
BRANDON        PTCLDY    50  37  62 W3        30.09S
DAUPHIN        CLEAR     61  34  36 SW12      30.03S
ISLAND LAKE    CLEAR     46  39  76 VRB2      29.93S
PILOT MOUND      N/A     46  36  66 S7          N/A
THE PAS        PTCLDY    52  37  58 VRB2      29.94S
THOMPSON       MOCLDY    43  36  75 NE13      30.07R
WINNIPEG       PTCLDY    61  37  41 SW8       30.07S
LYNN LAKE      CLEAR     43  34  70 NE8       30.12R
CHURCHILL      CLOUDY    32  28  86 N14       30.14S WCI  22
GILLAM         DRIZZLE   34  32  93 NE14G21   30.09S WCI  24
$$
                ***SASKATCHEWAN***

CITY           SKY/WX    TMP DP  RH WIND       PRES   REMARKS
ESTEVAN        PTCLDY    52  41  66 S7        30.09S
KINDERSLEY     CLEAR     55  28  35 SE13      30.05R
LLOYDMINSTER   CLEAR     61  23  23 SE3       30.04S
PRINCE ALBERT  PTCLDY    48  37  66 CALM      30.01R
REGINA         NOT AVBL
YORKTON        CLEAR     55  39  54 S8        30.05S
N. BATTLEFORD  CLEAR     61  32  33 S3        30.05R
LA RONGE       PTCLDY    50  36  57 VRB2      30.00R
SASKATOON      CLEAR     52  34  50 W5        30.05S
SWIFT CURRENT  CLOUDY    52  34  50 SE8       30.05S
$$
NOTE: THESE ARE AUTOMATED STATIONS WITH LIMITED QUALITY CONTROL
      "FAIR" INDICATES FEW OR NO CLOUDS BELOW 12,000 FEET WITH NO
      SIGNIFICANT WEATHER AND/OR OBSTRUCTIONS TO VISIBILITY.
      SKY/WX - SKY CONDITION AND SIGNIFICANT WEATHER.
      TMP - AIR TEMPERATURE.    DP   - DEWPOINT TEMPERATURE.
      RH  - RELATIVE HUMIDITY.  PRES - PRESSURE.
      HX  - HEAT INDEX.         WCI  - WIND CHILL INDEX.
$



USA.gov is the U.S. government's official web portal to all federal, state and local government web resources and services.